This is the latest recevied weather packets stored in our database for station/object W1MDM-10. If no packets are shown the sender has not sent any weather packets the latest 10 day(s).
| Time | Temp. | Humidity | Pressure | Rain* | Wind** | Luminosity | Snow |
|---|---|---|---|---|---|---|---|
| 1788022543 | 32.22° C | 69% | 1018.1 hPa | 0 mm | - | - | - |
| 1788022243 | 31.67° C | 70% | 1018.2 hPa | 0 mm | - | - | - |
| 1788021943 | 31.67° C | 72% | 1018.2 hPa | 0 mm | - | - | - |
| 1788021643 | 31.67° C | 71% | 1018.3 hPa | 0 mm | - | - | - |
| 1788021343 | 31.11° C | 73% | 1018.3 hPa | 0 mm | - | - | - |
| 1788021043 | 31.11° C | 72% | 1018.3 hPa | 0 mm | - | - | - |
| 1788020743 | 30.56° C | 75% | 1018.2 hPa | 0 mm | - | - | - |
| 1788020443 | 30.56° C | 76% | 1018.3 hPa | 0 mm | - | - | - |
| 1788020143 | 30.56° C | 76% | 1018.3 hPa | 0 mm | - | - | - |
| 1788019843 | 30.56° C | 77% | 1018.3 hPa | 0 mm | - | - | - |
| 1788019543 | 30° C | 77% | 1018.3 hPa | 0 mm | - | - | - |
| 1788019243 | 30° C | 79% | 1018.2 hPa | 0 mm | - | - | - |
| 1788018943 | 29.44° C | 84% | 1018.2 hPa | 0 mm | - | - | - |
| 1788018643 | 29.44° C | 84% | 1018.1 hPa | 0 mm | - | - | - |
| 1788018343 | 28.89° C | 86% | 1018 hPa | 0 mm | - | - | - |
| 1788018043 | 28.89° C | 86% | 1018.1 hPa | 0 mm | - | - | - |
| 1788017743 | 28.33° C | 88% | 1018.1 hPa | 0 mm | - | - | - |
| 1788017443 | 28.33° C | 90% | 1018.1 hPa | 0 mm | - | - | - |
| 1788017143 | 27.78° C | 90% | 1018.1 hPa | 0 mm | - | - | - |
| 1788016843 | 27.22° C | 92% | 1018.1 hPa | 0 mm | - | - | - |
| 1788016543 | 27.22° C | 95% | 1018 hPa | 0 mm | - | - | - |
| 1788016243 | 26.67° C | 96% | 1018.1 hPa | 0 mm | - | - | - |
| 1788015943 | 26.11° C | 98% | 1017.9 hPa | 0 mm | - | - | - |
| 1788015643 | 26.11° C | 99% | 1017.9 hPa | 0 mm | - | - | - |
| 1788015343 | 25.56° C | 99% | 1017.8 hPa | 0 mm | - | - | - |
* Rain latest hour (hover to see other rain measurements)
** Current wind speed in m/s (hover to see current wind gust speed)